AEE136 LGAV-LGTS

Flight info

Callsign AEE136
Flight time 0h 32m
Altitude 24000
Route KRO2H KRO G33 NEVRA Z507 OSMOS OSMOS2H
Aircraft A20N/M-SDE3L/L

Departure

Time 2026-05-03 20:38
Airport Athens Eleftherios Venizelos International Airport (LGAV)

Arrival

Time 2026-05-03 21:11
Airport Thessaloniki Macedonia International Airport (LGTS)
Time Latitude Longitude Altitude Speed Heading
2026-05-03 20:15 37.93872 23.95081 300 ft 0 kts 307°
2026-05-03 20:28 37.93859 23.95102 300 ft 4 kts 307°
2026-05-03 20:28 37.93844 23.95128 300 ft 2 kts 307°
2026-05-03 20:29 37.93832 23.95151 300 ft 4 kts 282°
2026-05-03 20:29 37.93834 23.95182 300 ft 4 kts 229°
2026-05-03 20:29 37.93839 23.95189 300 ft 0 kts 217°
2026-05-03 20:32 37.93826 23.95177 303 ft 7 kts 217°
2026-05-03 20:32 37.93746 23.95102 301 ft 21 kts 216°
2026-05-03 20:32 37.93607 23.94960 302 ft 29 kts 211°
2026-05-03 20:33 37.93439 23.94805 304 ft 31 kts 220°
2026-05-03 20:33 37.93266 23.94647 302 ft 21 kts 214°
2026-05-03 20:33 37.93167 23.94523 301 ft 9 kts 262°
2026-05-03 20:33 37.93195 23.94437 302 ft 13 kts 306°
2026-05-03 20:34 37.93257 23.94333 301 ft 17 kts 305°
2026-05-03 20:34 37.93250 23.94203 301 ft 17 kts 218°
2026-05-03 20:34 37.93141 23.94100 301 ft 22 kts 217°
2026-05-03 20:34 37.93122 23.93960 302 ft 18 kts 307°
2026-05-03 20:35 37.93207 23.93814 301 ft 24 kts 306°
2026-05-03 20:35 37.93321 23.93622 302 ft 32 kts 308°
2026-05-03 20:35 37.93429 23.93415 300 ft 20 kts 275°
2026-05-03 20:35 37.93377 23.93336 300 ft 16 kts 217°
2026-05-03 20:36 37.93254 23.93222 302 ft 28 kts 215°
2026-05-03 20:36 37.93073 23.93048 300 ft 37 kts 216°
2026-05-03 20:36 37.92847 23.92833 301 ft 44 kts 217°
2026-05-03 20:36 37.92589 23.92589 300 ft 48 kts 216°
2026-05-03 20:37 37.92310 23.92324 302 ft 52 kts 216°
2026-05-03 20:37 37.92092 23.92086 302 ft 1 kts 269°
2026-05-03 20:37 37.92099 23.92074 302 ft 4 kts 299°
2026-05-03 20:37 37.92128 23.92030 303 ft 9 kts 312°
2026-05-03 20:38 37.92199 23.91971 304 ft 20 kts 351°
2026-05-03 20:38 37.92440 23.92163 303 ft 88 kts 36°
2026-05-03 20:38 37.93202 23.92885 311 ft 178 kts 34°
2026-05-03 20:38 37.94220 23.93924 1261 ft 193 kts 36°
2026-05-03 20:39 37.95284 23.95058 2485 ft 208 kts 37°
2026-05-03 20:39 37.96419 23.96274 3834 ft 217 kts 36°
2026-05-03 20:39 37.97583 23.97513 5222 ft 219 kts 36°
2026-05-03 20:39 37.98777 23.98774 6637 ft 226 kts 36°
2026-05-03 20:40 38.00001 24.00061 8011 ft 231 kts 36°
2026-05-03 20:40 38.01248 24.01368 9464 ft 234 kts 36°
2026-05-03 20:40 38.02506 24.02685 10874 ft 235 kts 36°
2026-05-03 20:40 38.03749 24.03985 12247 ft 234 kts 36°
2026-05-03 20:41 38.04997 24.05289 13683 ft 231 kts 35°
2026-05-03 20:41 38.06227 24.06577 14988 ft 227 kts 35°
2026-05-03 20:41 38.07428 24.07837 16268 ft 221 kts 35°
2026-05-03 20:41 38.08597 24.09073 17537 ft 217 kts 36°
2026-05-03 20:42 38.09627 24.10599 18301 ft 239 kts 42°
2026-05-03 20:42 38.11033 24.11792 18761 ft 254 kts 15°
2026-05-03 20:42 38.12854 24.11989 19163 ft 277 kts 350°
2026-05-03 20:42 38.14806 24.11330 19527 ft 303 kts 343°
2026-05-03 20:43 38.16893 24.10444 19850 ft 329 kts 341°
2026-05-03 20:43 38.19141 24.09458 20129 ft 353 kts 341°
2026-05-03 20:43 38.21507 24.08437 20853 ft 362 kts 341°
2026-05-03 20:43 38.23920 24.07417 21608 ft 372 kts 342°
2026-05-03 20:44 38.26445 24.06364 21856 ft 393 kts 342°
2026-05-03 20:44 38.29112 24.05259 22068 ft 413 kts 342°
2026-05-03 20:44 38.31901 24.04106 22274 ft 430 kts 342°
2026-05-03 20:44 38.34805 24.02905 22479 ft 445 kts 342°
2026-05-03 20:45 38.37736 24.01691 22948 ft 452 kts 342°
2026-05-03 20:45 38.40735 24.00446 23578 ft 455 kts 342°
2026-05-03 20:45 38.43763 23.99189 24036 ft 457 kts 342°
2026-05-03 20:45 38.46795 23.97928 24198 ft 458 kts 342°
2026-05-03 20:46 38.49821 23.96670 24157 ft 458 kts 342°
2026-05-03 20:46 38.52846 23.95410 24161 ft 458 kts 342°
2026-05-03 20:46 38.54848 23.94576 24156 ft 458 kts 342°
2026-05-03 20:46 38.57893 23.93306 24157 ft 458 kts 342°
2026-05-03 20:47 38.60923 23.92041 24161 ft 458 kts 342°
2026-05-03 20:47 38.63948 23.90777 24159 ft 457 kts 342°
2026-05-03 20:47 38.66972 23.89512 24162 ft 458 kts 342°
2026-05-03 20:47 38.70004 23.88243 24159 ft 457 kts 342°
2026-05-03 20:48 38.73023 23.86977 24162 ft 457 kts 342°
2026-05-03 20:48 38.76052 23.85706 24160 ft 457 kts 342°
2026-05-03 20:48 38.79071 23.84438 24163 ft 457 kts 342°
2026-05-03 20:48 38.82102 23.83164 24162 ft 457 kts 342°
2026-05-03 20:49 38.85119 23.81895 24163 ft 457 kts 342°
2026-05-03 20:49 38.88075 23.80651 24162 ft 457 kts 342°
2026-05-03 20:49 38.91105 23.79374 24162 ft 457 kts 342°
2026-05-03 20:49 38.94072 23.78123 24160 ft 456 kts 342°
2026-05-03 20:50 38.97066 23.76859 24163 ft 456 kts 342°
2026-05-03 20:50 39.00111 23.75572 24159 ft 456 kts 342°
2026-05-03 20:50 39.03101 23.74308 24163 ft 456 kts 342°
2026-05-03 20:50 39.03398 23.74182 24160 ft 456 kts 342°
2026-05-03 20:51 39.06377 23.72921 24159 ft 456 kts 342°
2026-05-03 20:51 39.09391 23.71644 24158 ft 456 kts 342°
2026-05-03 20:51 39.12413 23.70363 24159 ft 456 kts 342°
2026-05-03 20:51 39.15425 23.69084 24159 ft 456 kts 342°
2026-05-03 20:52 39.18434 23.67806 24159 ft 455 kts 342°
2026-05-03 20:52 39.21440 23.66527 24158 ft 455 kts 342°
2026-05-03 20:52 39.24412 23.65263 24156 ft 455 kts 342°
2026-05-03 20:52 39.27417 23.63982 24160 ft 455 kts 342°
2026-05-03 20:53 39.30406 23.62708 24159 ft 454 kts 342°
2026-05-03 20:53 39.33404 23.61428 24159 ft 454 kts 342°
2026-05-03 20:53 39.36396 23.60150 24156 ft 453 kts 343°
2026-05-03 20:53 39.39394 23.58869 24155 ft 453 kts 343°
2026-05-03 20:54 39.42387 23.57588 24155 ft 453 kts 343°
2026-05-03 20:54 39.48373 23.55024 24155 ft 453 kts 343°
2026-05-03 20:54 39.51366 23.53740 24158 ft 453 kts 343°
2026-05-03 20:55 39.54359 23.52455 24154 ft 453 kts 343°
2026-05-03 20:55 39.57353 23.51168 24159 ft 453 kts 343°
2026-05-03 20:55 39.60340 23.49883 24158 ft 453 kts 343°
2026-05-03 20:55 39.63329 23.48596 24155 ft 453 kts 343°
2026-05-03 20:56 39.66316 23.47309 24154 ft 452 kts 343°
2026-05-03 20:56 39.69311 23.46016 24157 ft 452 kts 343°
2026-05-03 20:56 39.72293 23.44729 24153 ft 452 kts 343°
2026-05-03 20:56 39.75288 23.43435 24151 ft 453 kts 343°
2026-05-03 20:57 39.78277 23.42141 24159 ft 453 kts 343°
2026-05-03 20:57 39.81269 23.40846 24156 ft 453 kts 343°
2026-05-03 20:57 39.84216 23.39569 24156 ft 453 kts 343°
2026-05-03 20:57 39.87208 23.38271 24158 ft 453 kts 343°
2026-05-03 20:58 39.90196 23.36973 24154 ft 453 kts 343°
2026-05-03 20:58 39.93151 23.35545 24158 ft 454 kts 338°
2026-05-03 20:58 39.96048 23.33883 24148 ft 453 kts 338°
2026-05-03 20:58 39.98898 23.32185 23735 ft 448 kts 335°
2026-05-03 20:59 40.01622 23.30250 22702 ft 444 kts 331°
2026-05-03 20:59 40.04243 23.28148 21517 ft 439 kts 330°
2026-05-03 20:59 40.06825 23.26059 20269 ft 433 kts 330°
2026-05-03 20:59 40.09372 23.23998 19062 ft 427 kts 330°
2026-05-03 21:00 40.11885 23.21972 17800 ft 422 kts 330°
2026-05-03 21:00 40.13510 23.20659 17015 ft 417 kts 330°
2026-05-03 21:00 40.16787 23.17998 15462 ft 407 kts 330°
2026-05-03 21:01 40.19069 23.16133 14379 ft 401 kts 330°
2026-05-03 21:01 40.21412 23.14211 13228 ft 395 kts 330°
2026-05-03 21:01 40.23726 23.12339 12090 ft 387 kts 330°
2026-05-03 21:01 40.25990 23.10540 11024 ft 372 kts 330°
2026-05-03 21:02 40.28140 23.08857 10062 ft 351 kts 330°
2026-05-03 21:02 40.30208 23.07264 8317 ft 353 kts 330°
2026-05-03 21:02 40.32319 23.05666 7193 ft 343 kts 330°
2026-05-03 21:02 40.34305 23.04180 6806 ft 315 kts 330°
2026-05-03 21:03 40.36145 23.02863 6540 ft 288 kts 332°
2026-05-03 21:03 40.37881 23.01744 6179 ft 269 kts 336°
2026-05-03 21:03 40.39547 23.00762 5730 ft 256 kts 325°
2026-05-03 21:03 40.40883 22.99354 5547 ft 237 kts 320°
2026-05-03 21:04 40.42105 22.98023 5410 ft 219 kts 321°
2026-05-03 21:04 40.43305 22.96975 5269 ft 201 kts 330°
2026-05-03 21:04 40.44463 22.96118 5180 ft 177 kts 330°
2026-05-03 21:04 40.45553 22.95615 5056 ft 159 kts 349°
2026-05-03 21:05 40.46562 22.95241 4954 ft 143 kts 339°
2026-05-03 21:05 40.47458 22.94818 4801 ft 136 kts 339°
2026-05-03 21:05 40.48346 22.94394 4542 ft 136 kts 339°
2026-05-03 21:05 40.49238 22.93968 4263 ft 138 kts 339°
2026-05-03 21:06 40.50170 22.93519 3824 ft 146 kts 339°
2026-05-03 21:06 40.51134 22.93053 3312 ft 149 kts 339°
2026-05-03 21:06 40.52106 22.92576 2881 ft 145 kts 339°
2026-05-03 21:06 40.53036 22.92119 2513 ft 139 kts 339°
2026-05-03 21:07 40.53919 22.91682 2167 ft 132 kts 339°
2026-05-03 21:07 40.54765 22.91261 1796 ft 129 kts 339°
2026-05-03 21:07 40.55601 22.90933 1480 ft 125 kts 345°
2026-05-03 21:07 40.56484 22.90756 1401 ft 130 kts 358°
2026-05-03 21:08 40.57359 22.91023 1396 ft 131 kts 22°
2026-05-03 21:08 40.58126 22.91631 1388 ft 130 kts 50°
2026-05-03 21:08 40.58297 22.92764 1400 ft 133 kts 106°
2026-05-03 21:08 40.57767 22.93757 1396 ft 135 kts 128°
2026-05-03 21:09 40.57174 22.94714 1145 ft 135 kts 135°
2026-05-03 21:09 40.56449 22.95415 882 ft 128 kts 151°
2026-05-03 21:09 40.55636 22.95888 693 ft 127 kts 161°
2026-05-03 21:09 40.54791 22.96219 482 ft 126 kts 164°
2026-05-03 21:10 40.53936 22.96493 272 ft 127 kts 166°
2026-05-03 21:10 40.53095 22.96759 106 ft 126 kts 166°
2026-05-03 21:10 40.52257 22.97004 28 ft 115 kts 157°
2026-05-03 21:10 40.51670 22.97201 27 ft 58 kts 165°
2026-05-03 21:11 40.51546 22.97396 29 ft 6 kts 51°
2026-05-03 21:11 40.51566 22.97400 26 ft 6 kts 358°
2026-05-03 21:11 40.51634 22.97383 30 ft 14 kts 348°
2026-05-03 21:11 40.51746 22.97347 30 ft 20 kts 344°
2026-05-03 21:12 40.51899 22.97303 27 ft 26 kts 349°
2026-05-03 21:12 40.52072 22.97248 27 ft 13 kts 347°
2026-05-03 21:12 40.52164 22.97220 29 ft 17 kts 347°
2026-05-03 21:12 40.52295 22.97178 27 ft 22 kts 346°
2026-05-03 21:13 40.52383 22.97240 25 ft 16 kts 75°
2026-05-03 21:13 40.52426 22.97366 27 ft 16 kts 41°
2026-05-03 21:13 40.52443 22.97388 25 ft 0 kts 44°
2026-05-03 21:13 40.52448 22.97394 25 ft 0 kts 44°
2026-05-03 21:14 40.52447 22.97393 25 ft 0 kts 44°
2026-05-03 21:14 40.52448 22.97394 25 ft 1 kts 44°
2026-05-03 21:14 40.52447 22.97393 25 ft 1 kts 44°
2026-05-03 21:14 40.52446 22.97392 25 ft 0 kts 44°
2026-05-03 21:15 40.52447 22.97393 25 ft 0 kts 44°